Location: Newark
(40.7066°N, 111.8219°W)
Time: 07:22:50
(UTC+00:00)

Explorer 7 - All Passes

Search period start: 15 November 2019 00:00
Search period end: 25 November 2019 00:00
Orbit: 485 x 680 km, 50.3° (Epoch: 14 November)

Date Brightness Start Highest point End Pass type
(mag) Time Alt. Az. Time Alt. Az. Time Alt. Az.
15 Nov - 06:51:09 10° SE 06:51:53 10° SE 06:52:37 10° ESE night (unlit)
15 Nov - 08:27:18 10° SW 08:31:51 61° SE 08:36:08 10° ENE night (unlit)
15 Nov - 10:08:32 10° W 10:12:36 34° NNW 10:16:27 10° NE visible
15 Nov - 11:50:45 10° NW 11:54:00 21° N 11:57:08 10° NE visible
15 Nov - 13:31:44 10° NW 13:35:25 33° NNE 13:38:57 10° E visible
15 Nov - 15:12:15 10° WNW 15:16:05 53° SW 15:19:45 10° SE daylight
16 Nov - 06:53:29 10° S 06:56:36 18° SE 06:59:38 10° E night (unlit)
16 Nov - 08:32:10 10° WSW 08:36:47 87° NW 08:41:08 10° NE night (unlit)
16 Nov - 10:13:56 10° WNW 10:17:46 28° NNW 10:21:23 10° NE visible
16 Nov - 11:55:57 10° NW 11:59:16 22° N 12:02:26 10° ENE visible
16 Nov - 13:36:39 10° NW 13:40:32 45° NNE 13:44:15 10° E visible
16 Nov - 15:17:26 10° WNW 15:20:56 31° SW 15:24:17 10° SSE daylight
17 Nov - 06:57:22 10° SSW 07:01:23 28° SE 07:05:14 10° ENE night (unlit)
17 Nov - 08:37:15 10° WSW 08:41:48 59° NNW 08:46:04 10° NE night (unlit)
17 Nov - 10:19:21 10° WNW 10:22:58 24° N 10:26:24 10° NE visible
17 Nov - 12:01:02 10° NW 12:04:30 24° N 12:07:48 10° ENE visible
17 Nov - 13:41:34 10° NW 13:45:35 67° NNE 13:49:24 10° ESE visible
17 Nov - 15:22:57 10° W 15:25:41 18° SW 15:28:21 10° S daylight
18 Nov - 07:01:44 10° SSW 07:06:14 45° SE 07:10:30 10° ENE night (unlit)
18 Nov - 08:42:29 10° W 08:46:51 42° NNW 08:50:59 10° NE night (unlit)
18 Nov - 10:24:44 10° WNW 10:28:12 22° N 10:31:30 10° NE visible
18 Nov - 12:06:02 10° NW 12:09:42 29° NNE 12:13:12 10° ENE visible
18 Nov - 13:46:32 10° WNW 13:50:34 77° SW 13:54:23 10° SE visible
18 Nov - 15:29:40 10° WSW 15:30:23 10° SW 15:31:05 10° SW daylight
19 Nov - 05:28:55 10° SSE 05:31:05 13° SE 05:33:13 10° E night (unlit)
19 Nov - 07:06:26 10° SW 07:11:08 72° SE 07:15:34 10° ENE night (unlit)
19 Nov - 08:47:50 10° W 08:51:59 33° NNW 08:55:54 10° NE night (unlit)
19 Nov - 10:30:01 10° NW 10:33:27 22° N 10:36:44 10° NE visible
19 Nov - 12:10:58 10° NW 12:14:52 37° NNE 12:18:33 10° E visible
19 Nov - 13:51:36 10° WNW 13:55:27 45° SW 13:59:08 10° SSE daylight
20 Nov - 05:32:13 10° S 05:35:49 21° SE 05:39:19 10° E night (unlit)
20 Nov - 07:11:21 10° WSW 07:16:05 77° NNW 07:20:33 10° NE night (unlit)
20 Nov - 08:53:15 10° WNW 08:57:09 27° NNW 09:00:52 10° NE night (unlit)
20 Nov - 10:35:11 10° NW 10:38:42 23° N 10:42:03 10° ENE visible
20 Nov - 12:15:52 10° NW 12:19:57 51° NNE 12:23:48 10° ESE visible
20 Nov - 13:56:51 10° WNW 14:00:16 27° SW 14:03:32 10° SSE daylight
21 Nov - 05:36:17 10° SSW 05:40:36 34° SE 05:44:46 10° ENE night (unlit)
21 Nov - 07:16:29 10° WSW 07:21:06 54° NNW 07:25:28 10° NE night (unlit)
21 Nov - 08:58:39 10° WNW 09:02:22 24° N 09:05:54 10° NE night (unlit)
21 Nov - 10:40:15 10° NW 10:43:56 26° NNE 10:47:26 10° ENE visible
21 Nov - 12:20:48 10° NW 12:24:59 78° NNE 12:28:55 10° ESE visible
21 Nov - 14:02:30 10° W 14:04:59 16° SW 14:07:24 10° S daylight
22 Nov - 05:40:47 10° SW 05:45:27 53° SE 05:49:57 10° ENE night (unlit)
22 Nov - 07:21:45 10° W 07:26:11 40° NNW 07:30:24 10° NE night (unlit)
22 Nov - 09:03:59 10° WNW 09:07:37 23° N 09:11:03 10° NE night (unlit)
22 Nov - 10:45:13 10° NW 10:49:07 32° NNE 10:52:48 10° E visible
22 Nov - 12:25:47 10° WNW 12:29:56 66° SW 12:33:49 10° SE visible
23 Nov - 04:07:21 10° SSE 04:10:16 16° SE 04:13:06 10° E night (unlit)
23 Nov - 05:45:33 10° SW 05:50:22 82° SE 05:54:59 10° ENE night (unlit)
23 Nov - 07:27:07 10° W 07:31:19 32° NNW 07:35:20 10° NE night (unlit)
23 Nov - 09:09:14 10° NW 09:12:52 23° N 09:16:19 10° ENE night (unlit)
23 Nov - 10:50:09 10° NW 10:54:16 41° NNE 10:58:08 10° E visible
23 Nov - 12:30:54 10° WNW 12:34:47 39° SW 12:38:27 10° SSE visible
24 Nov - 04:11:01 10° S 04:15:00 25° SE 04:18:52 10° ENE night (unlit)
24 Nov - 05:50:33 10° WSW 05:55:21 69° NNW 05:59:56 10° NE night (unlit)
24 Nov - 07:32:31 10° WNW 07:36:31 27° NNW 07:40:19 10° NE night (unlit)
24 Nov - 09:14:22 10° NW 09:18:07 25° N 09:21:40 10° ENE night (unlit)
24 Nov - 10:55:03 10° NW 10:59:21 59° NNE 11:03:20 10° ESE visible
24 Nov - 12:36:14 10° W 12:39:34 24° SW 12:42:44 10° S visible
